Weather Service Report


610 
ASUS42 KRAH 200210
RWRRAH
NORTH CAROLINA WEATHER ROUNDUP
NATIONAL WEATHER SERVICE RALEIGH NC
900 PM EST THU JAN 19 2017

NOTE: "FAIR" INDICATES FEW OR NO CLOUDS BELOW 12,000 FEET WITH NO
SIGNIFICANT WEATHER AND/OR OBSTRUCTIONS TO VISIBILITY.

NCZ001-053-055-056-065-067-200300-
WESTERN NORTH CAROLINA
  
CITY           SKY/WX    TMP DP  RH WIND       PRES   REMARKS
ASHEVILLE      CLOUDY    54  34  46 SE7       29.96F                  
JEFFERSON      CLOUDY    47  35  62 S3        29.96F                  
MORGANTON      CLOUDY    47  43  85 CALM      30.01R                  
HICKORY        CLOUDY    53  39  59 CALM      29.97S                  
RUTHERFORDTON  CLOUDY    52  40  63 CALM      29.97S                  
MOUNT AIRY     MOCLDY    49  42  74 CALM      29.99S                  
BOONE          PTCLDY    49  32  52 S8        29.98S                  
$$
 
NCZ021-022-025-041-071-084-088-200300-
CENTRAL NORTH CAROLINA
  
CITY           SKY/WX    TMP DP  RH WIND       PRES   REMARKS
CHARLOTTE      PTCLDY    59  38  45 SE8       29.97F                  
GREENSBORO     PTCLDY    50  38  63 CALM      29.97F                  
WINSTON-SALEM  MOCLDY    48  36  63 CALM      29.98F                  
RALEIGH-DURHAM MOCLDY    49  40  71 CALM      30.00F                  
FORT BRAGG     CLEAR     47  43  86 CALM      29.98F                  
FAYETTEVILLE   CLEAR     52  43  71 SE5       29.99F                  
BURLINGTON     CLEAR     45  38  76 CALM      29.98F                  
LAURINBURG     PTCLDY    51  43  74 CALM      29.99F                  
$$
 
NCZ011-015-027-028-043-044-047-080-103-200300-
NORTHEASTERN NORTH CAROLINA
  
CITY           SKY/WX    TMP DP  RH WIND       PRES   REMARKS
ROCKY MT-WILSO PTCLDY    43  42  97 CALM      30.01F                  
GREENVILLE     PTCLDY    43  43 100 CALM      30.04S                  
WASHINGTON     PTCLDY    43  41  93 CALM        N/A                   
ELIZABETH CITY CLOUDY    44  40  85 E6        30.04F                  
MANTEO         FOG       39  39 100 CALM      30.04F VSB 1            
CAPE HATTERAS  CLEAR     45  42  89 E5        30.04F FOG              
$$
 
NCZ078-087-090-091-093-098-101-200300-
SOUTHEASTERN NORTH CAROLINA
  
CITY           SKY/WX    TMP DP  RH WIND       PRES   REMARKS
LUMBERTON      CLOUDY    51  48  89 SE3       29.99F                  
GOLDSBORO      CLEAR     47  46  98 E5        30.00S                  
KINSTON        CLEAR     43  41  93 CALM      30.03F                  
KENANSVILLE    PTCLDY    43  43 100 CALM      30.02S                  
NEW BERN       PTCLDY    46  42  86 CALM      30.04S                  
CHERRY POINT   PTCLDY    45  43  93 S3        30.04S                  
BEAUFORT       MOCLDY    47  43  86 CALM      30.03F                  
JACKSONVILLE   PTCLDY    47  45  93 CALM      30.03R                  
WILMINGTON     PTCLDY    47  45  93 CALM      30.02S                  
$$

  

Return to Home page


Western Regional Climate Center, wrcc@dri.edu